TimeAKST,TemperatureF,Dew PointF,Humidity,Sea Level PressureIn,VisibilityMPH,Wind Direction,Wind SpeedMPH,Gust SpeedMPH,PrecipitationIn,Events,Conditions,WindDirDegrees,DateUTC
12:56 AM,39.9,30.0,68,29.50,9.0,WSW,11.5,-,0.00,Rain,Light Rain,240,2012-12-14 09:56:00
1:03 AM,37.4,32.0,81,29.49,6.0,West,15.0,19.6,0.00,Rain,Light Rain,280,2012-12-14 10:03:00
1:47 AM,39.2,30.2,70,29.47,10.0,SSW,20.7,34.5,0.00,Rain,Light Rain,210,2012-12-14 10:47:00
1:56 AM,37.9,30.9,76,29.50,8.0,WSW,10.4,27.6,0.00,Rain,Light Rain,250,2012-12-14 10:56:00
2:22 AM,39.2,28.4,65,29.47,10.0,WSW,12.7,23.0,0.00,,Overcast,250,2012-12-14 11:22:00
2:56 AM,39.0,28.9,67,29.49,9.0,WSW,13.8,20.7,0.00,Rain,Light Rain,240,2012-12-14 11:56:00
3:21 AM,37.4,32.0,81,29.49,9.0,WNW,15.0,26.5,0.01,Rain,Light Rain,290,2012-12-14 12:21:00
3:56 AM,37.9,30.0,73,29.52,10.0,West,10.4,20.7,0.01,Rain,Light Rain,260,2012-12-14 12:56:00
4:17 AM,37.4,30.2,75,29.51,10.0,WSW,8.1,-,0.00,Rain,Light Rain,240,2012-12-14 13:17:00
4:56 AM,37.9,28.9,70,29.54,10.0,West,27.6,33.4,0.00,Rain,Light Rain,270,2012-12-14 13:56:00
5:56 AM,37.9,28.0,68,29.54,10.0,WSW,16.1,21.9,0.00,Rain,Light Rain,250,2012-12-14 14:56:00
6:17 AM,37.4,28.4,70,29.53,10.0,West,21.9,28.8,0.01,Rain-Snow,Light Rain,270,2012-12-14 15:17:00
6:56 AM,37.9,28.0,68,29.56,10.0,West,20.7,27.6,0.01,Rain-Snow,Light Rain,270,2012-12-14 15:56:00
7:56 AM,37.9,27.0,65,29.58,10.0,West,19.6,-,0.00,Rain-Snow,Light Rain,270,2012-12-14 16:56:00
8:56 AM,36.0,28.0,73,29.60,10.0,SW,11.5,-,0.00,Rain-Snow,Light Rain,230,2012-12-14 17:56:00
9:42 AM,35.6,28.4,75,29.61,1.5,West,29.9,34.5,0.00,Rain-Snow,Light Rain,270,2012-12-14 18:42:00
9:56 AM,36.0,28.0,73,29.63,6.0,WSW,17.3,29.9,N/A,Rain-Snow,Light Rain,250,2012-12-14 18:56:00
10:10 AM,35.6,28.4,75,29.62,8.0,SW,16.1,24.2,N/A,Rain-Snow,Light Rain,230,2012-12-14 19:10:00
10:15 AM,35.6,28.4,75,29.62,6.0,SW,15.0,23.0,N/A,Rain-Snow,Light Rain,230,2012-12-14 19:15:00
10:29 AM,35.6,26.6,70,29.62,8.0,WSW,20.7,29.9,N/A,Rain-Snow,Light Rain,240,2012-12-14 19:29:00
10:56 AM,36.0,26.1,67,29.64,8.0,WSW,13.8,23.0,N/A,Rain-Snow,Light Rain,240,2012-12-14 19:56:00
11:06 AM,35.6,28.4,75,29.64,4.0,WNW,25.3,29.9,N/A,Snow,Light Snow,290,2012-12-14 20:06:00
11:07 AM,35.6,28.4,75,29.64,3.0,WNW,25.3,33.4,N/A,Snow,Light Snow,290,2012-12-14 20:07:00
11:12 AM,35.6,28.4,75,29.65,2.0,WNW,32.2,39.1,N/A,Snow,Light Snow,290,2012-12-14 20:12:00
11:25 AM,33.8,26.6,75,29.65,6.0,West,23.0,41.4,N/A,Snow,Light Snow,280,2012-12-14 20:25:00
11:27 AM,33.8,26.6,75,29.64,8.0,West,24.2,39.1,N/A,Snow,Light Snow,280,2012-12-14 20:27:00
11:50 AM,35.6,24.8,65,29.64,8.0,West,19.6,24.2,N/A,Snow,Light Snow,270,2012-12-14 20:50:00
11:56 AM,37.0,23.0,57,29.66,8.0,West,19.6,26.5,N/A,Snow,Light Snow,280,2012-12-14 20:56:00
12:08 PM,37.4,23.0,56,29.64,10.0,West,18.4,25.3,N/A,Snow,Light Snow,280,2012-12-14 21:08:00
12:09 PM,37.4,23.0,56,29.64,8.0,West,21.9,28.8,N/A,Snow,Light Snow,270,2012-12-14 21:09:00
12:14 PM,37.4,24.8,60,29.65,8.0,West,24.2,33.4,N/A,Snow,Light Snow,260,2012-12-14 21:14:00
12:56 PM,36.0,26.1,67,29.66,8.0,WSW,27.6,32.2,N/A,Snow,Light Snow,250,2012-12-14 21:56:00
1:08 PM,35.6,26.6,70,29.65,8.0,WSW,19.6,31.1,N/A,Snow,Light Snow,240,2012-12-14 22:08:00
1:14 PM,35.6,28.4,75,29.66,1.5,West,21.9,26.5,N/A,Snow,Light Snow,260,2012-12-14 22:14:00
1:20 PM,35.6,28.4,75,29.66,5.0,WSW,20.7,26.5,N/A,Snow,Light Snow,250,2012-12-14 22:20:00
1:56 PM,34.0,25.0,70,29.68,10.0,SW,17.3,21.9,N/A,Snow,Light Snow,230,2012-12-14 22:56:00
1:57 PM,33.8,24.8,70,29.66,10.0,SW,16.1,21.9,N/A,Snow,Light Snow,230,2012-12-14 22:57:00
1:58 PM,33.8,24.8,70,29.65,10.0,SW,15.0,21.9,N/A,Snow,Light Snow,230,2012-12-14 22:58:00
2:44 PM,33.8,28.4,81,29.67,4.0,WNW,13.8,32.2,N/A,Snow,Light Snow,290,2012-12-14 23:44:00
2:56 PM,34.0,27.0,75,29.69,3.0,West,11.5,18.4,N/A,Snow,Light Snow,260,2012-12-14 23:56:00
3:14 PM,35.6,24.8,65,29.66,6.0,West,20.7,33.4,N/A,Snow,Light Snow,280,2012-12-15 00:14:00
3:56 PM,36.0,24.1,62,29.68,9.0,WSW,18.4,34.5,N/A,Snow,Light Snow,240,2012-12-15 00:56:00
4:15 PM,35.6,28.4,75,29.68,3.0,WNW,27.6,34.5,N/A,Snow,Light Snow,290,2012-12-15 01:15:00
4:18 PM,33.8,28.4,81,29.68,0.2,WNW,27.6,34.5,N/A,Snow,Heavy Snow,290,2012-12-15 01:18:00
4:31 PM,33.8,28.4,81,29.67,7.0,SW,10.4,24.2,N/A,Snow,Light Snow,230,2012-12-15 01:31:00
4:56 PM,35.1,26.1,70,29.70,7.0,West,18.4,28.8,N/A,Snow,Light Snow,270,2012-12-15 01:56:00
4:59 PM,35.6,26.6,70,29.68,4.0,WNW,19.6,25.3,N/A,Snow,Light Snow,290,2012-12-15 01:59:00
5:11 PM,33.8,28.4,81,29.69,3.0,West,16.1,21.9,N/A,Snow,Light Snow,280,2012-12-15 02:11:00
5:28 PM,33.8,28.4,81,29.69,1.5,WNW,15.0,-,N/A,Snow,Light Snow,290,2012-12-15 02:28:00
5:56 PM,33.1,28.9,85,29.72,1.5,NW,20.7,24.2,N/A,Snow,Light Snow,310,2012-12-15 02:56:00
6:04 PM,33.8,30.2,87,29.70,6.0,West,12.7,-,N/A,Snow,Light Snow,280,2012-12-15 03:04:00
6:28 PM,35.6,24.8,65,29.69,5.0,WSW,18.4,25.3,N/A,Snow,Light Snow,240,2012-12-15 03:28:00
6:56 PM,36.0,24.1,62,29.71,5.0,WSW,26.5,32.2,N/A,Snow,Light Snow,240,2012-12-15 03:56:00
6:58 PM,35.6,24.8,65,29.70,4.0,WSW,26.5,32.2,0.00,Snow,Light Snow,240,2012-12-15 03:58:00
7:08 PM,33.8,28.4,81,29.69,1.8,WSW,10.4,-,0.00,Snow,Light Snow,250,2012-12-15 04:08:00
7:14 PM,33.8,28.4,81,29.69,3.0,Variable,5.8,-,0.00,Snow,Light Snow,0,2012-12-15 04:14:00
7:19 PM,32.0,26.6,80,29.70,8.0,SW,5.8,-,0.00,Snow,Light Snow,220,2012-12-15 04:19:00
7:36 PM,33.8,28.4,81,29.71,5.0,Variable,6.9,-,0.00,Snow,Light Snow,0,2012-12-15 04:36:00
7:38 PM,33.8,28.4,81,29.71,4.0,West,8.1,-,0.00,Snow,Light Snow,280,2012-12-15 04:38:00
7:44 PM,33.8,28.4,81,29.72,5.0,West,6.9,-,0.00,Snow,Light Snow,270,2012-12-15 04:44:00
7:46 PM,33.8,28.4,81,29.72,6.0,West,5.8,-,0.00,Snow,Light Snow,270,2012-12-15 04:46:00
7:56 PM,33.1,28.9,85,29.74,6.0,West,8.1,-,0.00,Snow,Light Snow,270,2012-12-15 04:56:00
8:22 PM,33.8,28.4,81,29.73,3.0,NW,12.7,-,0.00,Snow,Light Snow,320,2012-12-15 05:22:00
8:25 PM,33.8,28.4,81,29.73,1.8,NW,10.4,-,0.00,Snow,Light Snow,320,2012-12-15 05:25:00
8:29 PM,32.0,28.4,87,29.73,1.2,NW,10.4,-,0.00,Snow,Light Snow,320,2012-12-15 05:29:00
8:43 PM,32.0,30.2,93,29.73,0.8,West,6.9,-,0.00,Snow,Light Snow,270,2012-12-15 05:43:00
8:56 PM,32.0,28.9,88,29.75,1.0,Calm,Calm,-,0.01,Snow,Light Snow,0,2012-12-15 05:56:00
8:58 PM,32.0,28.4,87,29.73,1.5,Calm,Calm,-,0.00,Snow,Light Snow,0,2012-12-15 05:58:00
9:02 PM,32.0,28.4,87,29.73,3.0,Calm,Calm,-,0.00,Snow,Light Snow,0,2012-12-15 06:02:00
9:15 PM,32.0,28.4,87,29.73,10.0,East,4.6,-,0.01,,Overcast,80,2012-12-15 06:15:00
9:56 PM,32.0,28.9,88,29.75,10.0,SSW,3.5,-,0.02,,Overcast,210,2012-12-15 06:56:00
10:11 PM,32.0,28.4,87,29.73,10.0,SSE,5.8,-,0.00,,Overcast,160,2012-12-15 07:11:00
10:39 PM,32.0,28.4,87,29.74,10.0,SE,3.5,-,0.00,,Overcast,140,2012-12-15 07:39:00
10:56 PM,32.0,28.0,85,29.77,6.0,WNW,11.5,17.3,0.00,Snow,Light Snow,290,2012-12-15 07:56:00
11:33 PM,32.0,28.4,87,29.76,10.0,SSW,4.6,-,0.00,,Mostly Cloudy,200,2012-12-15 08:33:00
11:56 PM,32.0,28.0,85,29.78,10.0,SW,4.6,-,0.00,,Mostly Cloudy,220,2012-12-15 08:56:00